User: anonymous   Login
Location: Unspecified
(0.0000°N, 0.0000°E)
Time: 20:40:13
(UTC+00:00)
Language:

USA 188 - Orbit

View from above orbital plane
View from above orbital plane
View from above satellite
View from above satellite

Ground track
Ground track

The orbit data is extracted from the following two-line orbital elements,

1 29241U 06024B   18020.06020051 0.00000000  00000-0  00000-0 0    08
2 29241   6.3964  58.0584 0005898 109.4008 250.6750  0.98863338    03
Epoch (UTC): 20 January 2018 01:26:41
Eccentricity: 0.0005898
inclination: 6.3964°
perigee height: 36160 km
apogee height: 36211 km
right ascension of ascending node: 58.0584°
argument of perigee: 109.4008°
revolutions per day: 0.98863338
mean anomaly at epoch: 250.6750°
orbit number at epoch: 0

The dashed part of the orbit path shows where the satellite is in the earth's shadow,  

DLR